Climatologie pour Saint-Brevin les Pins
Jour • Résumé pour février 9, 2018 Système :  Anglais    Métrique   Mixte
« - 1 jour
+ 1 jour »
Jour Semaine Mois Année Personnalisé
  Maximum : Minimum : Moyenne :
Température sous abri : 51.3 °F 36.9 °F 43.5 °F
Point de rosée : 45.7 °F 30.9 °F 37.9 °F
Humidité : 96% 55% 82%
Vitesse du vent : 16mph 0mph 5.5mph
Rafale : 24mph - -
Direction - - West
Pression : 30.2 in 29.9 in -
Précipitations : 0.17 in    
Historical Graphs
 
 
Tableau de données pour février 9, 2018
Heure Tempé Pt rosée Pression Vent Vitesse Rafale Humidité Taux pluie (/hr) Soleil
00:00 37.6 °F 35.6 °F 30.1 in South 4 mph 7 mph 93% 0 in 0 W/m2
00:05 38.1 °F 36.3 °F 30.1 in SSW 7 mph 7 mph 93% 0 in 0 W/m2
00:10 38.8 °F 36.7 °F 30.1 in SW 4 mph 7 mph 92% 0 in 0 W/m2
00:15 39 °F 37 °F 30.1 in SSW 2 mph 7 mph 92% 0 in 0 W/m2
00:20 39.4 °F 37 °F 30.1 in SSW 1 mph 6 mph 91% 0 in 0 W/m2
00:25 39.6 °F 37 °F 30.1 in South 2 mph 9 mph 91% 0 in 0 W/m2
00:30 39.7 °F 37 °F 30.1 in South 3 mph 9 mph 90% 0 in 0 W/m2
00:35 39.7 °F 37 °F 30.1 in SSW 6 mph 9 mph 90% 0 in 0 W/m2
00:45 40.6 °F 37.8 °F 30.1 in SSW 4 mph 9 mph 89% 0 in 0 W/m2
00:50 41 °F 37.8 °F 30.1 in South 4 mph 14 mph 88% 0 in 0 W/m2
00:55 41.2 °F 37.6 °F 30.1 in SSW 2 mph 14 mph 87% 0 in 0 W/m2
01:00 41.5 °F 37.9 °F 30.1 in South 3 mph 10 mph 87% 0 in 0 W/m2
01:05 41.9 °F 38.3 °F 30.1 in SSW 8 mph 11 mph 87% 0 in 0 W/m2
01:10 42.1 °F 38.3 °F 30.1 in SSW 4 mph 11 mph 86% 0 in 0 W/m2
01:15 42.3 °F 38.3 °F 30.1 in SSW 4 mph 15 mph 86% 0 in 0 W/m2
01:20 42.4 °F 38.5 °F 30.1 in SW 7 mph 15 mph 86% 0 in 0 W/m2
01:30 42.4 °F 38.3 °F 30.1 in SSW 5 mph 13 mph 85% 0 in 0 W/m2
01:35 42.6 °F 38.5 °F 30 in South 9 mph 13 mph 85% 0 in 0 W/m2
01:40 42.6 °F 38.5 °F 30 in SSW 5 mph 12 mph 85% 0 in 0 W/m2
01:45 42.6 °F 38.5 °F 30 in South 7 mph 13 mph 85% 0 in 0 W/m2
01:50 42.6 °F 38.5 °F 30 in SSW 10 mph 14 mph 85% 0 in 0 W/m2
01:55 42.8 °F 38.8 °F 30 in SSW 7 mph 14 mph 86% 0 in 0 W/m2
02:00 42.8 °F 38.7 °F 30 in South 16 mph 16 mph 85% 0 in 0 W/m2
02:05 43 °F 38.7 °F 30 in SW 6 mph 17 mph 85% 0 in 0 W/m2
02:15 43 °F 39 °F 30 in South 7 mph 12 mph 86% 0 in 0 W/m2
02:20 43.2 °F 39.2 °F 30 in South 10 mph 12 mph 86% 0 in 0 W/m2
02:25 43.2 °F 39.2 °F 30 in South 8 mph 13 mph 86% 0 in 0 W/m2
02:30 43.2 °F 39.4 °F 30 in SSW 3 mph 13 mph 86% 0 in 0 W/m2
02:35 43.3 °F 39.4 °F 30 in SSW 6 mph 12 mph 86% 0 in 0 W/m2
02:40 43.3 °F 39.6 °F 30 in South 8 mph 14 mph 86% 0 in 0 W/m2
02:45 43.5 °F 39.7 °F 30 in South 8 mph 14 mph 86% 0 in 0 W/m2
02:50 43.5 °F 39.7 °F 30 in SSW 13 mph 14 mph 86% 0 in 0 W/m2
03:00 43.5 °F 39.7 °F 30 in SSW 9 mph 15 mph 86% 0 in 0 W/m2
03:05 43.5 °F 39.7 °F 30 in SSW 6 mph 11 mph 86% 0 in 0 W/m2
03:10 43.5 °F 39.9 °F 30 in SSW 6 mph 11 mph 87% 0 in 0 W/m2
03:15 43.3 °F 39.7 °F 30 in SSW 7 mph 11 mph 87% 0 in 0 W/m2
03:20 43.5 °F 39.9 °F 30 in SSW 5 mph 9 mph 87% 0 in 0 W/m2
03:25 43.9 °F 40.1 °F 30 in South 5 mph 8 mph 87% 0 in 0 W/m2
03:30 44.1 °F 39.9 °F 30 in SSW 6 mph 10 mph 85% 0 in 0 W/m2
03:35 44.4 °F 39.9 °F 30 in South 4 mph 15 mph 84% 0 in 0 W/m2
03:45 44.8 °F 39.9 °F 30 in SSW 4 mph 13 mph 83% 0 in 0 W/m2
03:50 44.6 °F 40.1 °F 30 in SSW 4 mph 13 mph 84% 0 in 0 W/m2
03:55 44.4 °F 40.3 °F 30 in SSW 4 mph 12 mph 85% 0 in 0 W/m2
04:00 44.6 °F 40.3 °F 30 in WSW 4 mph 12 mph 85% 0 in 0 W/m2
04:05 44.8 °F 40.5 °F 30 in SSW 7 mph 11 mph 85% 0 in 0 W/m2
04:10 45 °F 40.5 °F 30 in SSW 2 mph 13 mph 84% 0 in 0 W/m2
04:15 45.1 °F 40.6 °F 30 in SW 12 mph 15 mph 84% 0 in 0 W/m2
04:20 45.1 °F 40.6 °F 30 in SW 5 mph 17 mph 84% 0 in 0 W/m2
04:30 45 °F 40.8 °F 29.9 in SSW 5 mph 11 mph 85% 0 in 0 W/m2
04:35 45 °F 40.6 °F 29.9 in SSW 1 mph 12 mph 85% 0 in 0 W/m2
04:40 44.8 °F 40.8 °F 29.9 in SW 5 mph 13 mph 86% 0 in 0 W/m2
04:45 44.6 °F 41 °F 29.9 in South 5 mph 13 mph 87% 0 in 0 W/m2
04:50 44.4 °F 41.2 °F 29.9 in South 6 mph 11 mph 88% 0 in 0 W/m2
04:55 44.4 °F 41.2 °F 29.9 in SSW 3 mph 16 mph 88% 0.01 in 0 W/m2
05:00 44.4 °F 41.4 °F 29.9 in South 2 mph 16 mph 89% 0.01 in 0 W/m2
05:05 44.4 °F 41.4 °F 29.9 in SSW 7 mph 14 mph 89% 0.01 in 0 W/m2
05:15 44.4 °F 41.7 °F 29.9 in SW 1 mph 14 mph 90% 0.01 in 0 W/m2
05:20 44.4 °F 41.7 °F 29.9 in South 8 mph 13 mph 90% 0.01 in 0 W/m2
05:25 44.4 °F 41.7 °F 29.9 in SSW 5 mph 13 mph 90% 0.01 in 0 W/m2
05:30 44.4 °F 42.1 °F 29.9 in SSE 6 mph 14 mph 91% 0.01 in 0 W/m2
05:35 44.6 °F 42.1 °F 29.9 in South 5 mph 14 mph 91% 0.01 in 0 W/m2
05:40 44.8 °F 42.3 °F 29.9 in SSW 4 mph 16 mph 91% 0.02 in 0 W/m2
05:45 44.8 °F 42.3 °F 29.9 in SW 7 mph 16 mph 91% 0.02 in 0 W/m2
05:50 44.8 °F 42.3 °F 29.9 in SSW 7 mph 16 mph 91% 0.02 in 0 W/m2
06:00 44.8 °F 42.6 °F 29.9 in South 6 mph 16 mph 92% 0.02 in 0 W/m2
06:05 44.8 °F 42.6 °F 29.9 in SSW 3 mph 16 mph 92% 0.02 in 0 W/m2
06:10 45 °F 43 °F 29.9 in SW 6 mph 17 mph 93% 0.02 in 0 W/m2
06:15 45 °F 43 °F 29.9 in SSW 7 mph 17 mph 93% 0.02 in 0 W/m2
06:20 45 °F 43.2 °F 29.9 in SW 7 mph 15 mph 93% 0.02 in 0 W/m2
06:25 45 °F 43.2 °F 29.9 in SSW 7 mph 20 mph 93% 0.03 in 0 W/m2
06:30 45.1 °F 43.5 °F 29.9 in SSW 11 mph 20 mph 94% 0.03 in 0 W/m2
06:35 45.1 °F 43.5 °F 29.9 in SSW 4 mph 20 mph 94% 0.03 in 0 W/m2
06:45 45.5 °F 43.9 °F 29.9 in SSW 4 mph 18 mph 94% 0.02 in 0 W/m2
06:50 45.7 °F 44.2 °F 29.9 in South 4 mph 16 mph 95% 0.02 in 0 W/m2
06:55 45.9 °F 44.4 °F 29.9 in SSE 10 mph 18 mph 95% 0.04 in 0 W/m2
07:00 45.9 °F 44.4 °F 29.9 in SSW 3 mph 18 mph 95% 0.05 in 0 W/m2
07:05 46 °F 44.6 °F 29.9 in South 7 mph 13 mph 95% 0.06 in 0 W/m2
07:10 46 °F 44.8 °F 29.9 in SSW 7 mph 21 mph 95% 0.06 in 0 W/m2
07:15 46.2 °F 45 °F 29.9 in SW 4 mph 21 mph 95% 0.07 in 0 W/m2
07:20 46.2 °F 45 °F 29.9 in WSW 9 mph 16 mph 95% 0.08 in 0 W/m2
07:30 46.6 °F 45.1 °F 29.9 in West 7 mph 12 mph 95% 0.08 in 0 W/m2
07:35 46.8 °F 45.7 °F 29.9 in West 8 mph 15 mph 96% 0.09 in 0 W/m2
07:40 46.8 °F 45.7 °F 29.9 in WNW 10 mph 15 mph 96% 0.09 in 0 W/m2
07:45 46.4 °F 45 °F 29.9 in WSW 4 mph 13 mph 95% 0.09 in 0 W/m2
07:50 46.2 °F 45 °F 29.9 in Calm   10 mph 95% 0.09 in 0 W/m2
07:55 46 °F 44.8 °F 29.9 in WSW 1 mph 7 mph 95% 0.07 in 0 W/m2
08:00 45.9 °F 44.8 °F 29.9 in West 1 mph 5 mph 96% 0.06 in 0 W/m2
08:05 45.9 °F 44.4 °F 29.9 in WNW 1 mph 5 mph 95% 0.05 in 0 W/m2
08:15 45.5 °F 44.2 °F 29.9 in West 4 mph 7 mph 95% 0.03 in 0 W/m2
08:20 45.3 °F 43.9 °F 29.9 in West 2 mph 7 mph 95% 0.02 in 0 W/m2
08:25 45.1 °F 43.7 °F 29.9 in WNW 2 mph 6 mph 95% 0.02 in 0 W/m2
08:30 45.1 °F 44.1 °F 29.9 in Calm   5 mph 96% 0.02 in 0 W/m2
08:35 45.3 °F 44.2 °F 29.9 in West 2 mph 5 mph 96% 0.01 in 0 W/m2
08:40 45.3 °F 44.2 °F 29.9 in WNW 2 mph 6 mph 96% 0 in 0 W/m2
08:45 45.7 °F 44.6 °F 29.9 in West 1 mph 6 mph 96% 0 in 5 W/m2
08:50 45.9 °F 44.8 °F 29.9 in WNW 5 mph 11 mph 96% 0 in 7 W/m2
09:00 46 °F 45 °F 29.9 in WNW 4 mph 12 mph 96% 0 in 9 W/m2
09:05 46 °F 45 °F 29.9 in WNW 8 mph 10 mph 96% 0 in 12 W/m2
09:10 46 °F 45 °F 29.9 in WNW 3 mph 13 mph 96% 0 in 19 W/m2
09:15 46 °F 45 °F 29.9 in NW 7 mph 13 mph 96% 0 in 7 W/m2
09:20 46 °F 45 °F 29.9 in WNW 6 mph 13 mph 96% 0 in 12 W/m2
09:25 46 °F 45 °F 29.9 in NW 4 mph 17 mph 96% 0.01 in 7 W/m2
09:30 45.7 °F 44.6 °F 29.9 in NNW 8 mph 24 mph 96% 0.02 in 19 W/m2
09:35 45.3 °F 44.2 °F 29.9 in WNW 10 mph 24 mph 96% 0.02 in 33 W/m2
09:40 45.1 °F 44.1 °F 29.9 in NNW 13 mph 18 mph 96% 0.02 in 30 W/m2
09:50 44.4 °F 43.5 °F 29.9 in NW 8 mph 19 mph 96% 0.03 in 42 W/m2
10:00 44.1 °F 43 °F 30 in NW 2 mph 17 mph 96% 0.03 in 46 W/m2
10:05 44.1 °F 43 °F 30 in NNW 10 mph 17 mph 96% 0.03 in 49 W/m2
10:10 44.1 °F 43 °F 30 in WNW 1 mph 14 mph 96% 0.03 in 40 W/m2
10:15 43.7 °F 42.6 °F 30 in NNW 10 mph 19 mph 96% 0.03 in 74 W/m2
10:20 43.5 °F 42.4 °F 30 in NW 6 mph 20 mph 96% 0.03 in 65 W/m2
10:30 43 °F 41.9 °F 30 in NNW 7 mph 15 mph 96% 0.02 in 83 W/m2
10:35 42.8 °F 41.7 °F 30 in NNW 5 mph 13 mph 96% 0.02 in 81 W/m2
10:40 42.6 °F 41.7 °F 30 in NNW 5 mph 13 mph 96% 0.01 in 88 W/m2
10:45 42.8 °F 41.7 °F 30 in NNW 6 mph 12 mph 96% 0 in 93 W/m2
10:50 42.6 °F 41.7 °F 30 in NNW 4 mph 12 mph 96% 0 in 93 W/m2
10:55 43 °F 41.9 °F 30 in NW 5 mph 12 mph 96% 0 in 134 W/m2
11:00 43.3 °F 41.9 °F 30 in North 5 mph 13 mph 95% 0 in 132 W/m2
11:05 43.2 °F 41.7 °F 30 in NW 4 mph 13 mph 95% 0 in 128 W/m2
11:15 43.2 °F 41.5 °F 30 in NNW 4 mph 14 mph 94% 0 in 149 W/m2
11:20 43.3 °F 41.7 °F 30 in WNW 10 mph 13 mph 94% 0 in 165 W/m2
11:25 43.5 °F 41.7 °F 30 in North 4 mph 13 mph 93% 0 in 158 W/m2
11:30 43.7 °F 41.5 °F 30 in NNW 6 mph 12 mph 92% 0 in 137 W/m2
11:35 43.3 °F 41 °F 30 in NNW 1 mph 10 mph 91% 0 in 51 W/m2
11:40 44.1 °F 42.1 °F 30 in NW 4 mph 15 mph 93% 0 in 399 W/m2
11:45 45.3 °F 42.8 °F 30 in NW 2 mph 15 mph 91% 0 in 422 W/m2
11:50 46 °F 43 °F 30 in NW 9 mph 12 mph 89% 0 in 192 W/m2
12:00 45.3 °F 41.4 °F 30 in NNW 13 mph 18 mph 86% 0 in 185 W/m2
12:05 46 °F 41.7 °F 30 in NNW 4 mph 19 mph 85% 0 in 454 W/m2
12:10 46.8 °F 41.9 °F 30 in WNW 6 mph 19 mph 83% 0 in 450 W/m2
12:15 47.1 °F 41.9 °F 30 in NNE 11 mph 18 mph 82% 0 in 490 W/m2
12:20 47.1 °F 41.5 °F 30 in NNW 7 mph 20 mph 81% 0 in 457 W/m2
12:25 47.8 °F 42.6 °F 30 in NNW 6 mph 20 mph 82% 0 in 464 W/m2
12:30 47.8 °F 41.4 °F 30 in NW 4 mph 17 mph 78% 0 in 461 W/m2
12:35 47.5 °F 38.8 °F 30 in NNE 4 mph 21 mph 72% 0 in 461 W/m2
12:45 48.4 °F 40.5 °F 30 in NNW 8 mph 22 mph 74% 0 in 475 W/m2
12:50 48.4 °F 39.4 °F 30 in North 11 mph 18 mph 71% 0 in 476 W/m2
12:55 48.6 °F 38.1 °F 30 in NW 4 mph 18 mph 67% 0 in 480 W/m2
13:00 48.6 °F 39.2 °F 30 in NNW 8 mph 18 mph 70% 0 in 478 W/m2
13:05 48.7 °F 37.9 °F 30 in NNW 8 mph 18 mph 66% 0 in 478 W/m2
13:10 49.1 °F 40.1 °F 30 in NNW 10 mph 16 mph 71% 0 in 482 W/m2
13:15 48.7 °F 37.2 °F 30 in NW 7 mph 19 mph 64% 0 in 483 W/m2
13:20 49.3 °F 38.7 °F 30 in NW 9 mph 22 mph 67% 0 in 478 W/m2
13:30 49.3 °F 38.7 °F 30 in WNW 7 mph 21 mph 67% 0 in 483 W/m2
13:35 49.5 °F 38.3 °F 30 in North 8 mph 21 mph 65% 0 in 490 W/m2
13:40 49.3 °F 36.5 °F 30 in North 10 mph 19 mph 61% 0 in 482 W/m2
13:45 49.3 °F 37.2 °F 30 in NNE 9 mph 19 mph 63% 0 in 489 W/m2
13:50 48.7 °F 36 °F 30 in NNW 6 mph 18 mph 61% 0 in 239 W/m2
13:55 49.6 °F 38.7 °F 30 in NNW 15 mph 18 mph 66% 0 in 524 W/m2
14:00 50.5 °F 38.8 °F 30 in North 10 mph 17 mph 64% 0 in 522 W/m2
14:05 50.7 °F 37.4 °F 30 in NW 9 mph 17 mph 60% 0 in 517 W/m2
14:15 51.1 °F 38.5 °F 30 in NW 10 mph 17 mph 62% 0 in 592 W/m2
14:20 51.3 °F 39.9 °F 30 in NNW 12 mph 17 mph 65% 0 in 561 W/m2
14:25 51.1 °F 37.6 °F 30 in NW 10 mph 18 mph 60% 0 in 483 W/m2
14:30 49.5 °F 34.9 °F 30 in NW 14 mph 18 mph 57% 0 in 461 W/m2
14:35 49.3 °F 33.8 °F 30 in NNW 11 mph 19 mph 55% 0 in 483 W/m2
14:40 50.2 °F 36.7 °F 30 in NNW 6 mph 20 mph 60% 0 in 552 W/m2
14:45 50.7 °F 37.8 °F 30 in North 5 mph 20 mph 61% 0 in 642 W/m2
14:50 50.4 °F 37.9 °F 30.1 in NNE 8 mph 21 mph 62% 0 in 142 W/m2
15:00 47.5 °F 37.4 °F 30.1 in NNW 8 mph 19 mph 68% 0.01 in 457 W/m2
15:05 48 °F 34.9 °F 30.1 in NW 2 mph 17 mph 60% 0.01 in 475 W/m2
15:10 48.4 °F 35.4 °F 30.1 in NW 6 mph 20 mph 61% 0.01 in 104 W/m2
15:15 46.2 °F 36.3 °F 30.1 in NNW 9 mph 20 mph 68% 0.01 in 81 W/m2
15:20 45.3 °F 35.8 °F 30.1 in NNW 9 mph 17 mph 69% 0.01 in 141 W/m2
15:25 46.9 °F 36.7 °F 30.1 in NNW 5 mph 17 mph 67% 0.01 in 378 W/m2
15:30 47.8 °F 35.4 °F 30.1 in NW 6 mph 15 mph 62% 0.01 in 355 W/m2
15:35 48 °F 36.3 °F 30.1 in NW 3 mph 15 mph 64% 0.01 in 343 W/m2
15:45 47.8 °F 35.1 °F 30.1 in North 7 mph 17 mph 61% 0.01 in 325 W/m2
15:50 48 °F 36.1 °F 30.1 in NW 5 mph 17 mph 63% 0.01 in 330 W/m2
15:55 48 °F 36.9 °F 30.1 in NW 9 mph 16 mph 65% 0 in 297 W/m2
16:00 47.8 °F 36.7 °F 30.1 in NW 5 mph 19 mph 65% 0 in 345 W/m2
16:05 47.1 °F 35.6 °F 30.1 in NW 11 mph 19 mph 64% 0 in 295 W/m2
16:10 47.8 °F 37.4 °F 30.1 in NNW 8 mph 17 mph 67% 0 in 276 W/m2
16:15 47.8 °F 35.8 °F 30.1 in NW 9 mph 17 mph 63% 0 in 258 W/m2
16:20 47.1 °F 32.2 °F 30.1 in North 5 mph 22 mph 56% 0 in 220 W/m2
16:30 46.6 °F 33.4 °F 30.1 in North 14 mph 18 mph 60% 0 in 127 W/m2
16:35 46.2 °F 33.4 °F 30.1 in NNW 6 mph 23 mph 61% 0 in 47 W/m2
16:40 45.9 °F 34 °F 30.1 in NW 9 mph 23 mph 63% 0 in 79 W/m2
16:45 45.9 °F 34.3 °F 30.1 in North 10 mph 19 mph 64% 0 in 105 W/m2
16:50 45.7 °F 33.3 °F 30.1 in NW 9 mph 18 mph 62% 0 in 60 W/m2
16:55 45.1 °F 33.8 °F 30.1 in NNW 14 mph 18 mph 64% 0 in 91 W/m2
17:00 45 °F 33.1 °F 30.1 in North 7 mph 17 mph 63% 0 in 37 W/m2
17:05 44.4 °F 33.4 °F 30.1 in NW 7 mph 18 mph 65% 0 in 46 W/m2
17:15 43.9 °F 34 °F 30.1 in NW 6 mph 17 mph 68% 0 in 32 W/m2
17:20 43.5 °F 33.6 °F 30.1 in North 4 mph 15 mph 68% 0 in 30 W/m2
17:25 43.3 °F 33.1 °F 30.1 in NNW 7 mph 16 mph 67% 0 in 28 W/m2
17:30 43.2 °F 32.9 °F 30.1 in NNE 7 mph 16 mph 67% 0 in 28 W/m2
17:35 43 °F 33.1 °F 30.1 in NNW 6 mph 15 mph 68% 0 in 26 W/m2
17:40 42.8 °F 33.3 °F 30.1 in NW 4 mph 13 mph 69% 0 in 25 W/m2
17:45 42.4 °F 33.4 °F 30.1 in NW 6 mph 14 mph 70% 0 in 23 W/m2
17:50 42.3 °F 33.3 °F 30.1 in NNW 6 mph 14 mph 70% 0 in 19 W/m2
18:00 41.5 °F 33.4 °F 30.1 in NNW 4 mph 10 mph 73% 0 in 14 W/m2
18:05 41.2 °F 33.3 °F 30.1 in NNW 12 mph 12 mph 73% 0 in 12 W/m2
18:10 41 °F 33.3 °F 30.1 in NW 1 mph 12 mph 74% 0 in 11 W/m2
18:15 41 °F 33.3 °F 30.1 in North 5 mph 16 mph 74% 0 in 7 W/m2
18:20 41.2 °F 33.1 °F 30.1 in NNW 6 mph 16 mph 73% 0 in 5 W/m2
18:25 41.2 °F 32.4 °F 30.1 in NNE 4 mph 14 mph 71% 0 in 0 W/m2
18:30 41.2 °F 31.6 °F 30.1 in NNW 7 mph 15 mph 69% 0 in 0 W/m2
18:35 41.2 °F 31.8 °F 30.1 in NW 5 mph 15 mph 69% 0 in 0 W/m2
18:45 40.6 °F 31.6 °F 30.1 in NNW 4 mph 12 mph 70% 0 in 0 W/m2
18:50 40.1 °F 31.8 °F 30.1 in NNW 4 mph 12 mph 72% 0 in 0 W/m2
18:55 40.1 °F 31.8 °F 30.1 in NNW 3 mph 10 mph 72% 0 in 0 W/m2
19:00 39.9 °F 31.6 °F 30.1 in NW 6 mph 10 mph 72% 0 in 0 W/m2
19:05 39.9 °F 32 °F 30.1 in NW 5 mph 9 mph 73% 0 in 0 W/m2
19:10 39.7 °F 32 °F 30.1 in NNW 1 mph 10 mph 74% 0 in 0 W/m2
19:15 39.6 °F 32 °F 30.2 in NNW 5 mph 10 mph 74% 0 in 0 W/m2
19:20 39.4 °F 32.2 °F 30.2 in NNW 5 mph 8 mph 75% 0 in 0 W/m2
19:30 38.8 °F 31.8 °F 30.2 in NW 3 mph 7 mph 76% 0 in 0 W/m2
19:35 38.5 °F 32 °F 30.2 in NNW 3 mph 8 mph 77% 0 in 0 W/m2
19:40 38.7 °F 32 °F 30.2 in NW 3 mph 8 mph 77% 0 in 0 W/m2
19:45 38.7 °F 31.8 °F 30.2 in NW 2 mph 7 mph 76% 0 in 0 W/m2
19:50 38.5 °F 31.6 °F 30.2 in WNW 2 mph 7 mph 76% 0 in 0 W/m2
19:55 38.1 °F 31.6 °F 30.2 in WNW 1 mph 6 mph 77% 0 in 0 W/m2
20:00 37.9 °F 31.5 °F 30.2 in NNW 6 mph 6 mph 77% 0 in 0 W/m2
20:05 37.8 °F 31.5 °F 30.2 in NW 3 mph 6 mph 78% 0 in 0 W/m2
20:15 37.2 °F 31.3 °F 30.2 in NW 5 mph 8 mph 79% 0 in 0 W/m2
20:20 37 °F 31.5 °F 30.2 in NNW 2 mph 8 mph 80% 0 in 0 W/m2
20:25 37.2 °F 31.6 °F 30.2 in NNW 1 mph 8 mph 80% 0 in 0 W/m2
20:30 37.4 °F 31.5 °F 30.2 in WNW 2 mph 8 mph 79% 0 in 0 W/m2
20:35 37.6 °F 31.6 °F 30.2 in NNW 5 mph 9 mph 79% 0 in 0 W/m2
20:40 37.9 °F 31.6 °F 30.2 in WNW 4 mph 9 mph 78% 0 in 0 W/m2
20:45 37.9 °F 31.6 °F 30.2 in NW 5 mph 8 mph 78% 0 in 0 W/m2
20:50 37.9 °F 31.6 °F 30.2 in WNW 2 mph 8 mph 78% 0 in 0 W/m2
21:00 37.6 °F 31.3 °F 30.2 in WNW 2 mph 7 mph 78% 0 in 0 W/m2
21:05 37.6 °F 31.3 °F 30.2 in Calm   7 mph 78% 0 in 0 W/m2
21:10 37 °F 31.1 °F 30.2 in Calm   7 mph 79% 0 in 0 W/m2
21:15 37 °F 31.1 °F 30.2 in WNW 3 mph 5 mph 79% 0 in 0 W/m2
21:20 37 °F 31.1 °F 30.2 in WNW 4 mph 6 mph 79% 0 in 0 W/m2
21:25 36.9 °F 30.9 °F 30.2 in NW 2 mph 7 mph 79% 0 in 0 W/m2
21:30 37 °F 31.5 °F 30.2 in NW 1 mph 7 mph 80% 0 in 0 W/m2
21:35 37.2 °F 31.6 °F 30.2 in NW 3 mph 6 mph 80% 0 in 0 W/m2
21:45 37.2 °F 32 °F 30.2 in NW 2 mph 7 mph 81% 0 in 0 W/m2
21:50 37.6 °F 32.2 °F 30.2 in WNW 1 mph 7 mph 81% 0 in 0 W/m2
21:55 37.8 °F 32.4 °F 30.2 in NW 1 mph 7 mph 81% 0 in 0 W/m2
22:00 37.6 °F 32.2 °F 30.2 in NNW 1 mph 7 mph 81% 0 in 0 W/m2
22:05 37.6 °F 32.4 °F 30.2 in NW 2 mph 8 mph 81% 0 in 0 W/m2
22:10 37.6 °F 32.2 °F 30.2 in NW 2 mph 8 mph 81% 0 in 0 W/m2
22:15 37.6 °F 32.5 °F 30.2 in WNW 4 mph 8 mph 82% 0 in 0 W/m2
22:20 37.6 °F 32.5 °F 30.2 in NW 4 mph 8 mph 82% 0 in 0 W/m2
22:30 37.2 °F 32.5 °F 30.2 in WNW 1 mph 7 mph 83% 0 in 0 W/m2
22:35 37.4 °F 32.7 °F 30.2 in West 2 mph 9 mph 83% 0 in 0 W/m2
22:40 37.2 °F 32.9 °F 30.2 in NW 2 mph 9 mph 84% 0 in 0 W/m2
22:45 37.4 °F 33.1 °F 30.2 in NW 5 mph 7 mph 84% 0 in 0 W/m2
22:50 37.6 °F 33.1 °F 30.2 in WNW 4 mph 8 mph 84% 0 in 0 W/m2
22:55 37.6 °F 33.3 °F 30.2 in NW 2 mph 9 mph 84% 0 in 0 W/m2
23:00 37.9 °F 33.8 °F 30.2 in NW 1 mph 9 mph 85% 0 in 0 W/m2
23:05 37.9 °F 33.6 °F 30.2 in NW 5 mph 9 mph 84% 0 in 0 W/m2
23:15 37.9 °F 33.6 °F 30.2 in NNW 2 mph 8 mph 84% 0 in 0 W/m2
23:20 37.8 °F 33.6 °F 30.2 in NW 2 mph 6 mph 85% 0 in 0 W/m2
23:25 37.8 °F 33.6 °F 30.2 in NW 5 mph 7 mph 85% 0 in 0 W/m2
23:30 37.8 °F 33.6 °F 30.2 in WNW 3 mph 7 mph 85% 0 in 0 W/m2
23:35 37.8 °F 33.8 °F 30.2 in NW 4 mph 8 mph 86% 0 in 0 W/m2
23:40 37.6 °F 33.8 °F 30.2 in NNW 6 mph 8 mph 86% 0 in 0 W/m2
23:45 37.6 °F 33.6 °F 30.2 in WNW 2 mph 8 mph 86% 0 in 0 W/m2
23:50 37.4 °F 33.8 °F 30.2 in NW 4 mph 9 mph 87% 0 in 0 W/m2